Weather in Vigoda

Ukraine / Ivano-Frankovsk District     48°55′40″N   23°55′09″E
temp.,
°C
wind,
m/s
gust,
m/s
humid.,
%
clouds,
%
prec.,
mm/h
press.,
hPa
HPBL,
m
15 may, sat
sat1500:00+11wsw41074100 0.0 1008642
03:00+10wsw31091100 1.7 1008447
06:00+9wsw4993100 2.9 1009325
09:00+10sw2496100 13.9 1011192
12:00+12ssw138299 1.7 1012458
15:00+15ne217065 2.5 1010777
18:00+15ene227712 2.0 1010515
21:00+11se238873 3.1 101035
16 may, sun
sun1600:00+9s2293100 0.0 101017
03:00+8s2291100 0.0 101015
06:00+8ssw1188100 0.0 100912
09:00+13se117425 0.0 1009192
12:00+19ene3354100 0.0 10071133
15:00+17sw3477100 2.9 1006219
18:00+15w3783100 2.3 1006460
21:00+12sw2289100 2.7 100714
17 may, mon
mon1700:00+11sse1193100 0.8 100814
03:00+10ssw119176 0.8 100812
06:00+10sw1191100 0.0 100815
09:00+14se1176100 0.1 1008362
12:00+18ne235399 0.1 10061416
15:00+19ne435341 0.1 10041307
18:00+15e2279100 1.5 100431
21:00+13wnw1185100 3.6 100519
18 may, tue
tue1800:00+11nnw2599100 1.6 1005313
03:00+9nnw4898100 1.9 1006452
06:00+7w229370 0.3 100730
09:00+10wnw3782100 0.3 1008874
12:00+13wnw6762100 0.1 10081455
15:00+15nw5757100 0.3 10081584
18:00+13wnw477396 1.4 1008545
21:00+9w339073 3.2 101155
19 may, wed
wed1900:00+7wsw349170 0.1 101257
03:00+7wsw33905 0.1 101351
06:00+6wsw349151 0.0 101466
09:00+11w467345 0.0 10141050
12:00+14wnw4557100 0.2 10141680
15:00+14nnw5566100 0.6 10131140
18:00+12nw3584100 1.8 1014605
21:00+9nw2490100 3.3 101574